Location: Schommer Observatory
(40.5200°N, 74.4500°W)
Time: 02:03:26
(UTC-04:00)

Tiangong 2 - Pass Details

Date: 21 May 2018
Orbit: 382 x 385 km, 42.8° (Epoch: 21 May)

Event Time Altitude Azimuth Distance (km) Brightness Sun altitude
Rises 21:28:20 0° 229° (SW) 2,240 5.0 -12.6°
Reaches altitude 10° 21:30:30 10° 220° (SW) 1,390 3.9 -12.9°
Maximum altitude 21:33:23 34° 153° (SSE) 648 1.7 -13.3°
Enters shadow 21:34:27 26° 111° (ESE) 795 2.1 -13.4°
